When you browse on this site, cookies collect data to enhance your experience and personalize the content and advertising you see.
Visit our Privacy Policy to learn more. By continuing to use the site, you agree to this use of cookies and data.
  • In Hungary
  • List of Countries
  • For 7 days
  • Water Temperature
  • Weather Map
  • News
  • Weather Widgets
  • user-avatar
    Login

    Hourly Weather Lewis

    Today, 3 June, Wednesday

    Time Temperature Precipitation Wind Pressure Humidity
    00:00 +5°C° 0 mm 7 mps 757 mmHg 86%
    01:00 +5°C° 0 mm 7 mps 757 mmHg 84%
    02:00 +7°C° 0 mm 6 mps 756 mmHg 81%
    03:00 +7°C° 0 mm 6 mps 756 mmHg 79%
    04:00 +6°C° 0 mm 7 mps 756 mmHg 76%
    05:00 +6°C° 0 mm 7 mps 756 mmHg 73%
    06:00 +6°C° 0 mm 7 mps 756 mmHg 71%
    07:00 +8°C° 0 mm 6 mps 756 mmHg 69%
    08:00 +8°C° 0 mm 6 mps 756 mmHg 67%
    09:00 +9°C° 0 mm 6 mps 756 mmHg 66%
    10:00 +9°C° 0 mm 6 mps 755 mmHg 65%
    11:00 +9°C° 0 mm 6 mps 755 mmHg 65%
    12:00 +9°C° 0 mm 6 mps 755 mmHg 65%
    13:00 +9°C° 0 mm 5 mps 755 mmHg 64%
    14:00 +10°C° 0 mm 5 mps 754 mmHg 63%
    15:00 +10°C° 0 mm 5 mps 754 mmHg 63%
    16:00 +10°C° 0 mm 4 mps 753 mmHg 64%
    17:00 +10°C° 0 mm 4 mps 753 mmHg 65%
    18:00 +10°C° 0 mm 4 mps 753 mmHg 66%
    19:00 +9°C° 0 mm 3 mps 752 mmHg 70%
    20:00 +8°C° 0 mm 3 mps 752 mmHg 74%
    21:00 +8°C° 0 mm 2 mps 751 mmHg 78%
    22:00 +8°C° 0.1 mm 3 mps 751 mmHg 80%
    23:00 +8°C° 0.1 mm 3 mps 750 mmHg 82%

    Tomorrow, 4 June, Thursday

    Time Temperature Precipitation Wind Pressure Humidity
    00:00 +7°C° 0.1 mm 4 mps 749 mmHg 84%
    01:00 +8°C° 0.2 mm 4 mps 748 mmHg 86%
    02:00 +8°C° 0.2 mm 4 mps 748 mmHg 88%
    03:00 +8°C° 0.2 mm 4 mps 747 mmHg 91%
    04:00 +8°C° 0.2 mm 5 mps 746 mmHg 89%
    05:00 +8°C° 0.2 mm 5 mps 746 mmHg 87%
    06:00 +9°C° 0.2 mm 6 mps 745 mmHg 85%
    07:00 +9°C° 0.1 mm 5 mps 745 mmHg 81%
    08:00 +10°C° 0.1 mm 5 mps 745 mmHg 77%
    09:00 +10°C° 0.1 mm 5 mps 745 mmHg 73%
    10:00 +10°C° 0.1 mm 6 mps 745 mmHg 71%
    11:00 +10°C° 0.1 mm 6 mps 745 mmHg 69%
    12:00 +10°C° 0.1 mm 7 mps 745 mmHg 67%
    13:00 +10°C° 0 mm 7 mps 745 mmHg 64%
    14:00 +10°C° 0 mm 7 mps 745 mmHg 62%
    15:00 +10°C° 0 mm 6 mps 744 mmHg 60%
    16:00 +9°C° 0 mm 6 mps 744 mmHg 61%
    17:00 +9°C° 0 mm 6 mps 744 mmHg 62%
    18:00 +8°C° 0 mm 6 mps 744 mmHg 63%
    19:00 +8°C° 0.1 mm 6 mps 744 mmHg 68%
    20:00 +7°C° 0.1 mm 6 mps 744 mmHg 73%
    21:00 +5°C° 0.1 mm 6 mps 744 mmHg 77%
    22:00 +5°C° 0.1 mm 6 mps 743 mmHg 78%
    23:00 +5°C° 0.1 mm 6 mps 743 mmHg 78%

    Day after tomorrow, 5 June, Friday

    Time Temperature Precipitation Wind Pressure Humidity
    00:00 +4°C° 0.1 mm 6 mps 743 mmHg 78%
    01:00 +4°C° 0.1 mm 6 mps 742 mmHg 79%
    02:00 +4°C° 0.1 mm 6 mps 742 mmHg 80%
    03:00 +4°C° 0.1 mm 6 mps 742 mmHg 81%
    04:00 +5°C° 0.2 mm 7 mps 742 mmHg 78%
    05:00 +5°C° 0.2 mm 8 mps 742 mmHg 76%
    06:00 +5°C° 0.2 mm 8 mps 742 mmHg 74%
    07:00 +6°C° 0.2 mm 9 mps 742 mmHg 72%
    08:00 +6°C° 0.2 mm 10 mps 742 mmHg 70%
    09:00 +6°C° 0.2 mm 10 mps 742 mmHg 68%
    10:00 +6°C° 0.2 mm 11 mps 741 mmHg 67%
    11:00 +6°C° 0.2 mm 11 mps 741 mmHg 65%
    12:00 +5°C° 0.2 mm 12 mps 741 mmHg 64%
    13:00 +5°C° 0.1 mm 12 mps 741 mmHg 66%
    14:00 +5°C° 0.1 mm 12 mps 741 mmHg 68%
    15:00 +5°C° 0.1 mm 13 mps 740 mmHg 70%
    16:00 +4°C° 0.1 mm 13 mps 740 mmHg 72%
    17:00 +4°C° 0.1 mm 13 mps 740 mmHg 74%
    18:00 +4°C° 0.1 mm 14 mps 739 mmHg 76%
    19:00 +4°C° 0.4 mm 14 mps 739 mmHg 80%
    20:00 +4°C° 0.4 mm 14 mps 739 mmHg 84%
    21:00 +4°C° 0.4 mm 14 mps 739 mmHg 87%
    22:00 +5°C° 0.6 mm 13 mps 738 mmHg 88%
    23:00 +5°C° 0.6 mm 13 mps 738 mmHg 89%

    6 June, Saturday

    Time Temperature Precipitation Wind Pressure Humidity
    00:00 +5°C° 0.6 mm 13 mps 738 mmHg 89%
    01:00 +5°C° 1 mm 13 mps 738 mmHg 90%
    02:00 +5°C° 1 mm 12 mps 738 mmHg 91%
    03:00 +7°C° 1 mm 12 mps 738 mmHg 92%
    04:00 +7°C° 1.2 mm 12 mps 738 mmHg 91%
    05:00 +7°C° 1.2 mm 12 mps 738 mmHg 91%
    06:00 +7°C° 1.2 mm 12 mps 738 mmHg 90%
    07:00 +7°C° 0.5 mm 11 mps 738 mmHg 90%
    08:00 +7°C° 0.5 mm 10 mps 738 mmHg 89%
    09:00 +7°C° 0.5 mm 9 mps 739 mmHg 89%
    10:00 +9°C° 0.4 mm 8 mps 739 mmHg 89%
    11:00 +9°C° 0.4 mm 8 mps 739 mmHg 90%
    12:00 +9°C° 0.4 mm 7 mps 739 mmHg 90%
    13:00 +10°C° 0.1 mm 7 mps 739 mmHg 87%
    14:00 +11°C° 0.1 mm 7 mps 740 mmHg 84%
    15:00 +12°C° 0.1 mm 7 mps 740 mmHg 81%
    16:00 +11°C° 0 mm 7 mps 740 mmHg 81%
    17:00 +11°C° 0 mm 7 mps 741 mmHg 82%
    18:00 +11°C° 0 mm 6 mps 741 mmHg 82%
    19:00 +11°C° 0 mm 7 mps 742 mmHg 84%
    20:00 +10°C° 0 mm 7 mps 743 mmHg 86%
    21:00 +9°C° 0 mm 8 mps 743 mmHg 87%
    22:00 +9°C° 0.1 mm 8 mps 743 mmHg 88%
    23:00 +9°C° 0.1 mm 8 mps 744 mmHg 89%

    7 June, Sunday

    Time Temperature Precipitation Wind Pressure Humidity
    00:00 +7°C° 0.1 mm 8 mps 744 mmHg 89%
    01:00 +7°C° 0.1 mm 8 mps 744 mmHg 89%
    02:00 +7°C° 0.1 mm 8 mps 744 mmHg 89%
    03:00 +7°C° 0.1 mm 9 mps 745 mmHg 88%
    04:00 +7°C° 0.1 mm 8 mps 745 mmHg 88%
    05:00 +7°C° 0.1 mm 8 mps 746 mmHg 87%
    06:00 +7°C° 0.1 mm 8 mps 746 mmHg 87%
    07:00 +7°C° 0.1 mm 8 mps 747 mmHg 86%
    08:00 +7°C° 0.1 mm 8 mps 747 mmHg 86%
    09:00 +7°C° 0.1 mm 8 mps 748 mmHg 85%
    10:00 +9°C° 0 mm 8 mps 748 mmHg 84%
    11:00 +9°C° 0 mm 8 mps 749 mmHg 83%
    12:00 +9°C° 0 mm 8 mps 749 mmHg 82%
    13:00 +9°C° 0 mm 8 mps 750 mmHg 82%
    14:00 +9°C° 0 mm 7 mps 750 mmHg 81%
    15:00 +10°C° 0 mm 7 mps 751 mmHg 80%
    16:00 +9°C° 0 mm 7 mps 751 mmHg 81%
    17:00 +9°C° 0 mm 7 mps 751 mmHg 81%
    18:00 +9°C° 0 mm 7 mps 752 mmHg 82%
    19:00 +9°C° 0.1 mm 7 mps 752 mmHg 82%
    20:00 +8°C° 0.1 mm 7 mps 753 mmHg 83%
    21:00 +8°C° 0.1 mm 7 mps 754 mmHg 84%
    22:00 +6°C° 0 mm 7 mps 754 mmHg 82%
    23:00 +6°C° 0 mm 7 mps 754 mmHg 81%

    8 June, Monday

    Time Temperature Precipitation Wind Pressure Humidity
    00:00 +6°C° 0 mm 7 mps 754 mmHg 79%
    01:00 +6°C° 0 mm 7 mps 754 mmHg 79%
    02:00 +5°C° 0 mm 6 mps 754 mmHg 79%
    03:00 +5°C° 0 mm 6 mps 754 mmHg 78%
    04:00 +5°C° 0 mm 6 mps 754 mmHg 77%
    05:00 +5°C° 0 mm 6 mps 755 mmHg 76%
    06:00 +7°C° 0 mm 6 mps 755 mmHg 75%
    07:00 +7°C° 0 mm 6 mps 755 mmHg 74%
    08:00 +7°C° 0 mm 6 mps 755 mmHg 74%
    09:00 +7°C° 0 mm 6 mps 756 mmHg 73%
    10:00 +7°C° 0 mm 6 mps 756 mmHg 72%
    11:00 +8°C° 0 mm 6 mps 756 mmHg 71%
    12:00 +8°C° 0 mm 6 mps 756 mmHg 70%
    13:00 +8°C° 0 mm 6 mps 756 mmHg 68%
    14:00 +8°C° 0 mm 5 mps 756 mmHg 67%
    15:00 +9°C° 0 mm 5 mps 756 mmHg 66%
    16:00 +8°C° 0 mm 5 mps 756 mmHg 66%
    17:00 +8°C° 0 mm 5 mps 756 mmHg 67%
    18:00 +8°C° 0 mm 5 mps 756 mmHg 68%
    19:00 +8°C° 0 mm 5 mps 757 mmHg 69%
    20:00 +7°C° 0 mm 4 mps 757 mmHg 71%
    21:00 +7°C° 0 mm 4 mps 757 mmHg 72%
    22:00 +7°C° 0 mm 4 mps 757 mmHg 73%
    23:00 +8°C° 0 mm 3 mps 757 mmHg 73%
    Show more